{"data":{"norad_id":65876,"epoch":"2026-05-24T18:54:28.960416Z","epoch_age_seconds":96444,"freshness":"FRESH","line1":"1 65876U 25223Y   26144.78783519  .00012140  00000+0  42121-3 0  9991","line2":"2 65876  53.1602 300.9139 0001208  93.3773 266.7366 15.30208706 35858","mean_motion":15.30208706,"eccentricity":0.0001208,"inclination_deg":53.1602,"raan_deg":300.9139,"arg_perigee_deg":93.3773,"mean_anomaly_deg":266.7366,"bstar":0.00042121,"rev_number":3585,"period_min":94.104810301609,"perigee_km":474.36119320598,"apogee_km":476.01695678569,"semimajor_km":6853.3260749958,"source":"CELESTRAK","updated_at":"2026-05-25T13:38:20.977056Z"}}